Location: Baix
(44.7118°N, 4.7648°E)
Time: 06:08:19
(UTC+00:00)

Vanguard 1 - Pass Details

Date: 02 December 2020
Orbit: 648 x 3834 km, 34.3° (Epoch: 21 January)

Event Time Altitude Azimuth Distance (km) Brightness Sun altitude
Rises 09:37:53 0° 268° (W) 4,705 13.3 18.5°
Reaches altitude 10° 09:41:14 10° 255° (WSW) 4,123 13.2 18.7°
Maximum altitude 09:50:11 26° 205° (SSW) 3,957 13.9 19.4°
Drops below altitude 10° 10:03:33 10° 159° (SSE) 6,254 16.5 20.3°
Sets 10:10:30 0° 149° (SSE) 7,664 16.1 20.8°
